TimeCDT,TemperatureF,Dew PointF,Humidity,Sea Level PressureIn,VisibilityMPH,Wind Direction,Wind SpeedMPH,Gust SpeedMPH,PrecipitationIn,Events,Conditions,WindDirDegrees,DateUTC
12:15 AM,69.4,67.6,94,30.01,7.0,Calm,Calm,-,N/A,,Clear,0,2013-07-20 05:15:00
12:35 AM,69.3,67.5,94,30.02,7.0,Calm,Calm,-,N/A,,Clear,0,2013-07-20 05:35:00
12:55 AM,68.9,67.3,95,30.02,5.0,Calm,Calm,-,N/A,,Clear,0,2013-07-20 05:55:00
1:15 AM,68.4,66.9,95,30.02,4.0,Calm,Calm,-,N/A,,Clear,0,2013-07-20 06:15:00
1:35 AM,68.5,67.1,95,30.02,4.0,Calm,Calm,-,N/A,,Clear,0,2013-07-20 06:35:00
1:55 AM,68.4,67.1,96,30.01,4.0,Calm,Calm,-,N/A,,Clear,0,2013-07-20 06:55:00
2:15 AM,67.5,66.0,95,30.02,3.0,Calm,Calm,-,N/A,,Clear,0,2013-07-20 07:15:00
2:35 AM,67.6,66.2,95,30.01,5.0,Calm,Calm,-,N/A,,Clear,0,2013-07-20 07:35:00
2:55 AM,67.3,66.0,96,30.01,5.0,Calm,Calm,-,N/A,,Clear,0,2013-07-20 07:55:00
3:15 AM,67.3,66.2,96,30.01,7.0,Calm,Calm,-,N/A,,Clear,0,2013-07-20 08:15:00
3:35 AM,67.1,65.5,95,30.01,7.0,ESE,3.5,-,N/A,,Clear,110,2013-07-20 08:35:00
3:55 AM,67.1,65.8,96,30.00,7.0,Calm,Calm,-,N/A,,Clear,0,2013-07-20 08:55:00
4:15 AM,67.1,65.7,95,30.01,7.0,Calm,Calm,-,N/A,,Clear,0,2013-07-20 09:15:00
4:35 AM,67.1,65.5,95,30.01,7.0,Calm,Calm,-,N/A,,Scattered Clouds,0,2013-07-20 09:35:00
4:55 AM,66.2,64.8,95,30.01,5.0,Calm,Calm,-,N/A,,Mostly Cloudy,0,2013-07-20 09:55:00
5:15 AM,66.2,64.9,96,30.00,5.0,Calm,Calm,-,N/A,,Overcast,0,2013-07-20 10:15:00
5:35 AM,66.2,64.9,96,30.00,7.0,Calm,Calm,-,N/A,,Mostly Cloudy,0,2013-07-20 10:35:00
5:55 AM,66.2,64.9,96,30.01,7.0,Calm,Calm,-,N/A,,Clear,0,2013-07-20 10:55:00
6:15 AM,66.2,64.9,96,30.00,7.0,Calm,Calm,-,N/A,,Clear,0,2013-07-20 11:15:00
6:35 AM,66.2,64.9,96,30.00,7.0,Calm,Calm,-,N/A,,Clear,0,2013-07-20 11:35:00
6:55 AM,65.8,64.6,96,30.00,5.0,Calm,Calm,-,N/A,,Clear,0,2013-07-20 11:55:00
7:15 AM,66.4,65.3,96,30.00,5.0,Calm,Calm,-,N/A,,Clear,0,2013-07-20 12:15:00
7:35 AM,67.1,65.8,96,30.00,7.0,SE,3.5,-,N/A,,Clear,130,2013-07-20 12:35:00
7:55 AM,67.5,66.2,96,30.00,10.0,SSE,3.5,-,N/A,,Clear,150,2013-07-20 12:55:00
8:15 AM,68.4,66.6,94,30.00,10.0,SSE,3.5,-,N/A,,Clear,150,2013-07-20 13:15:00
8:35 AM,70.0,67.6,92,30.00,10.0,SSE,4.6,-,N/A,,Clear,150,2013-07-20 13:35:00
8:55 AM,71.1,67.1,87,30.00,10.0,South,4.6,-,N/A,,Clear,170,2013-07-20 13:55:00
9:15 AM,72.7,67.6,84,30.00,10.0,South,3.5,-,N/A,,Clear,170,2013-07-20 14:15:00
9:35 AM,74.7,68.4,81,30.00,10.0,South,5.8,-,0.01,,Clear,190,2013-07-20 14:35:00
9:55 AM,75.9,68.5,78,30.00,10.0,South,6.9,-,0.01,,Clear,180,2013-07-20 14:55:00
10:15 AM,77.2,68.7,75,30.00,10.0,SSW,4.6,-,N/A,,Clear,200,2013-07-20 15:15:00
10:35 AM,78.8,68.7,71,30.00,10.0,South,8.1,-,N/A,,Clear,170,2013-07-20 15:35:00
10:55 AM,79.3,68.2,69,30.01,10.0,SSW,8.1,-,N/A,,Scattered Clouds,200,2013-07-20 15:55:00
11:15 AM,81.3,68.7,65,30.01,10.0,South,4.6,-,N/A,,Scattered Clouds,190,2013-07-20 16:15:00
11:35 AM,81.9,68.2,63,30.00,10.0,SW,4.6,-,N/A,,Scattered Clouds,220,2013-07-20 16:35:00
11:55 AM,82.8,68.5,62,30.00,10.0,SSW,5.8,-,N/A,,Scattered Clouds,210,2013-07-20 16:55:00
12:15 PM,82.0,68.4,63,30.00,10.0,SW,4.6,-,N/A,,Mostly Cloudy,220,2013-07-20 17:15:00
12:35 PM,84.0,68.4,59,30.00,10.0,WSW,3.5,-,N/A,,Scattered Clouds,250,2013-07-20 17:35:00
12:55 PM,84.4,68.0,58,29.99,10.0,West,5.8,-,N/A,,Mostly Cloudy,280,2013-07-20 17:55:00
1:15 PM,84.7,68.7,58,29.98,10.0,Calm,Calm,-,N/A,,Mostly Cloudy,0,2013-07-20 18:15:00
1:35 PM,86.5,68.0,54,29.97,10.0,Calm,Calm,-,N/A,,Scattered Clouds,0,2013-07-20 18:35:00
1:55 PM,87.4,67.6,52,29.96,10.0,Calm,Calm,-,N/A,,Clear,0,2013-07-20 18:55:00
2:15 PM,88.3,66.7,49,29.95,10.0,WSW,3.5,-,N/A,,Clear,250,2013-07-20 19:15:00
2:35 PM,88.9,67.5,49,29.94,10.0,ESE,6.9,-,N/A,,Scattered Clouds,120,2013-07-20 19:35:00
2:55 PM,88.2,67.5,50,29.95,10.0,ENE,3.5,-,N/A,,Mostly Cloudy,70,2013-07-20 19:55:00
3:15 PM,87.4,67.8,52,29.94,10.0,WNW,4.6,-,N/A,,Mostly Cloudy,300,2013-07-20 20:15:00
3:35 PM,89.2,67.5,48,29.93,10.0,NNE,3.5,-,N/A,,Mostly Cloudy,30,2013-07-20 20:35:00
3:55 PM,90.3,66.2,45,29.93,10.0,Calm,Calm,-,N/A,,Mostly Cloudy,0,2013-07-20 20:55:00
4:15 PM,90.7,65.3,43,29.92,10.0,Calm,Calm,-,N/A,,Scattered Clouds,0,2013-07-20 21:15:00
4:35 PM,90.0,65.3,44,29.91,10.0,SSE,3.5,-,N/A,,Mostly Cloudy,160,2013-07-20 21:35:00
4:55 PM,90.7,68.9,49,29.92,10.0,SE,16.1,24.2,N/A,,Overcast,130,2013-07-20 21:55:00
5:15 PM,81.3,72.3,74,29.93,10.0,SE,12.7,21.9,N/A,Rain,Light Rain,130,2013-07-20 22:15:00
5:35 PM,79.5,69.4,71,29.93,10.0,SE,12.7,19.6,N/A,Rain,Light Rain,140,2013-07-20 22:35:00
5:55 PM,79.9,71.4,75,29.93,10.0,SSE,12.7,20.7,N/A,,Mostly Cloudy,160,2013-07-20 22:55:00
6:15 PM,79.2,71.1,76,29.92,10.0,SSE,9.2,-,N/A,,Mostly Cloudy,160,2013-07-20 23:15:00
6:35 PM,78.4,70.0,75,29.91,10.0,SSE,8.1,-,N/A,,Clear,150,2013-07-20 23:35:00
6:55 PM,78.6,70.0,75,29.91,10.0,SSE,6.9,-,N/A,,Clear,160,2013-07-20 23:55:00
7:15 PM,77.9,69.8,76,29.93,10.0,South,5.8,-,N/A,,Clear,170,2013-07-21 00:15:00
7:35 PM,77.4,69.8,77,29.92,10.0,SE,4.6,-,N/A,,Clear,140,2013-07-21 00:35:00
7:55 PM,77.0,69.8,78,29.91,10.0,SE,4.6,-,N/A,,Clear,140,2013-07-21 00:55:00
8:15 PM,76.6,69.8,79,29.92,10.0,SE,5.8,-,N/A,,Clear,140,2013-07-21 01:15:00
8:35 PM,76.1,70.0,81,29.92,10.0,SE,4.6,-,N/A,,Clear,130,2013-07-21 01:35:00
8:55 PM,75.6,69.8,82,29.93,10.0,SE,3.5,-,N/A,,Clear,130,2013-07-21 01:55:00
9:15 PM,75.2,69.8,83,29.94,10.0,ESE,4.6,-,N/A,,Clear,120,2013-07-21 02:15:00
9:35 PM,74.5,69.8,85,29.94,10.0,SSE,4.6,-,N/A,,Clear,150,2013-07-21 02:35:00
9:55 PM,73.8,69.8,87,29.95,10.0,ESE,4.6,-,N/A,,Clear,120,2013-07-21 02:55:00
10:15 PM,73.4,69.4,87,29.95,10.0,SE,3.5,-,N/A,,Clear,130,2013-07-21 03:15:00
10:35 PM,73.0,69.3,88,29.95,10.0,Calm,Calm,-,N/A,,Clear,0,2013-07-21 03:35:00
10:55 PM,72.7,69.3,89,29.96,10.0,SE,3.5,-,N/A,,Clear,130,2013-07-21 03:55:00
11:15 PM,72.5,68.9,88,29.96,10.0,SE,3.5,-,N/A,,Clear,140,2013-07-21 04:15:00
11:35 PM,72.0,68.5,89,29.96,10.0,SE,4.6,-,N/A,,Clear,140,2013-07-21 04:35:00
11:55 PM,71.6,68.4,89,29.95,10.0,SE,3.5,-,N/A,,Clear,140,2013-07-21 04:55:00